Flag for United Kingdom Weather past 2 weeks in Bury, England, United Kingdom

Now
37 °F

Passing clouds.


Feels Like: 28 °F
Forecast: 25 / 35 °F
Wind: 17 mph from Northwest

Location: Manchester Airport

Current Time: Feb 1, 2015 at 4:29:45 AM

Latest Report: Feb 1, 2015 at 3:50 AM


Visibility: N/A

Pressure: 29.45 "Hg

Humidity: 65%

Dew point: 27 °F

Location of BuryLocation

Historic Weather in Bury — Graph

°F

Bury temperature yesterday

Maximum temperature yesterday: 41 °F (at 11:20 AM)
Minimum temperature yesterday: 34 °F (at 12:20 AM)
Average temperature yesterday: 38 °F

Past Weeks' High & Low Weather Summary

 TemperatureHumidityPressure
High48 °F (Jan 25, 1:20 PM)100% (Jan 17, 10:50 PM)30.42 "Hg (Jan 17, 10:50 PM)
Low23 °F (Jan 19, 4:50 AM)61% (Jan 31, 2:20 PM)28.77 "Hg (Jan 29, 11:50 PM)
Average37 °F86%29.78 "Hg
* Reported Jan 17 3:20 AM — Feb 1 3:20 AM, Bury, Weather by CustomWeather, © 2014

Note: Actual official high and low records may vary slightly from our data, if they occured in-between our weather recording intervals... More about our weather records

Advertising

Bury weather history for previous 24 hours

 ConditionsComfort  
Time TempWeatherWind HumidityBarometerVisibility
3:20 AM
Feb 1
37 °FPassing clouds.20 mph65%29.42 "HgN/A
2:50 AM37 °FMostly cloudy.16 mph65%29.42 "HgN/A
2:20 AM37 °FMostly cloudy.16 mph65%29.42 "HgN/A
1:50 AM37 °FOvercast.16 mph65%29.42 "HgN/A
1:20 AM37 °FMostly cloudy.17 mph65%29.39 "HgN/A
12:50 AM37 °FOvercast.21 mph65%29.39 "HgN/A
12:20 AM37 °FPassing clouds.17 mph65%29.39 "HgN/A
11:50 PM
Jan 31
37 °FPassing clouds.16 mph65%29.39 "HgN/A
11:20 PM37 °FPassing clouds.17 mph65%29.39 "HgN/A
10:50 PM37 °FPassing clouds.16 mph65%29.39 "HgN/A
10:20 PM37 °FClear.16 mph65%29.39 "Hg10 mi
9:50 PM37 °FPassing clouds.16 mph65%29.39 "HgN/A
9:20 PM36 °FClear.15 mph70%29.39 "Hg10 mi
8:50 PM36 °FClear.17 mph70%29.36 "Hg10 mi
8:20 PM36 °FClear.17 mph70%29.36 "Hg10 mi
7:50 PM36 °FClear.16 mph70%29.36 "Hg10 mi
7:20 PM37 °FClear.13 mph65%29.36 "Hg10 mi
6:50 PM37 °FClear.10 mph65%29.36 "Hg10 mi
6:20 PM37 °FPassing clouds.10 mph65%29.33 "HgN/A
5:50 PM37 °FPassing clouds.9 mph65%29.33 "HgN/A
5:20 PM37 °FPartly cloudy.13 mph70%29.30 "HgN/A
4:50 PM39 °FPassing clouds.12 mph65%29.30 "HgN/A
4:20 PM39 °FBroken clouds.14 mph65%29.27 "HgN/A
3:50 PM39 °FPartly sunny.13 mph65%29.27 "HgN/A
3:20 PM39 °FPartly sunny.12 mph65%29.24 "HgN/A
2:50 PM41 °FPartly sunny.14 mph61%29.24 "HgN/A
2:20 PM41 °FPartly sunny.15 mph61%29.21 "HgN/A
1:50 PM41 °FPartly sunny.13 mph66%29.21 "HgN/A
1:20 PM41 °FPartly sunny.20 mph66%29.21 "HgN/A
12:50 PM41 °FPartly sunny.16 mph66%29.18 "HgN/A
12:20 PM39 °FScattered clouds.16 mph70%29.18 "HgN/A
11:50 AM39 °FMostly cloudy.13 mph70%29.15 "HgN/A
11:20 AM41 °FPartly sunny.15 mph70%29.15 "HgN/A
10:50 AM39 °FScattered clouds.13 mph75%29.12 "HgN/A
10:20 AM39 °FBroken clouds.12 mph75%29.09 "HgN/A
9:50 AM37 °FPartly sunny.12 mph81%29.09 "HgN/A
9:20 AM37 °FBroken clouds.13 mph81%29.06 "HgN/A
8:50 AM37 °FPartly sunny.12 mph81%29.06 "HgN/A
8:20 AM37 °FScattered clouds.12 mph81%29.03 "HgN/A
7:50 AM37 °FPassing clouds.10 mph87%29.00 "HgN/A
7:20 AM37 °FPassing clouds.10 mph87%28.97 "HgN/A
6:50 AM37 °FPartly cloudy.12 mph87%28.97 "HgN/A
6:20 AM36 °FPassing clouds.10 mph93%28.94 "HgN/A
5:50 AM36 °FPartly cloudy.12 mph93%28.91 "HgN/A
5:20 AM36 °FLight rain. Mostly cloudy.13 mph93%28.91 "HgN/A
4:50 AM36 °FLight rain. Mostly cloudy.12 mph93%28.88 "HgN/A
4:20 AM37 °FLight rain. Mostly cloudy.8 mph87%28.88 "HgN/A
Weather by CustomWeather, © 2014

See weather overviewHow to use our weather pages